GW0884 Weather Reports


time (UTC)temp
C
wind
direction
speed
KPH
gust
KPH
rain 1hr
cm
rain 24hr
cm
rain mn
cm
humidity
%
barometer
mb
20260507050716 15 283 6.4 11.3 0.00 0.00 0.00 78 1011.0
20260507050214 16 19 6.4 8.0 0.00 0.00 0.00 76 1011.2
20260507045710 16 305 4.8 4.8 0.00 0.00 0.00 74 1010.8
20260507045206 16 353 12.9 16.1 0.00 0.00 0.00 73 1010.8
20260507044704 16 337 16.1 16.1 0.00 0.00 0.00 73 1010.9
20260507044200 16 297 8.0 9.7 0.00 0.00 0.00 76 1010.8
20260507043656 16 273 0.0 1.6 0.00 0.00 0.00 76 1010.7
20260507043154 17 314 8.0 11.3 0.00 0.00 0.00 76 1010.7
20260507042650 17 26 8.0 9.7 0.00 0.00 0.00 76 1010.3
20260507042145 17 19 4.8 8.0 0.00 0.00 0.00 74 1010.3
20260507041642 17 345 6.4 9.7 0.00 0.00 0.00 75 1010.3
20260507041138 17 348 4.8 8.0 0.00 0.00 0.00 75 1010.0
20260507040636 17 302 3.2 8.0 0.00 0.00 0.00 76 1010.2
20260507040132 17 343 8.0 9.7 0.00 0.00 0.00 79 1010.0
20260507035628 17 2 4.8 8.0 0.00 0.36 0.36 79 1009.8
20260507035124 17 265 3.2 3.2 0.00 0.36 0.36 79 1010.1
20260507034621 18 351 3.2 4.8 0.00 0.36 0.36 78 1010.5
20260507034119 18 286 8.0 9.7 0.00 0.36 0.36 77 1010.4
20260507033617 18 359 8.0 11.3 0.00 0.36 0.36 75 1010.2
20260507033114 18 28 4.8 4.8 0.00 0.36 0.36 75 1010.1
20260507032611 18 326 3.2 3.2 0.00 0.36 0.36 77 1010.4
20260507032107 18 342 6.4 8.0 0.00 0.36 0.36 76 1010.1
20260507031604 18 353 4.8 4.8 0.00 0.36 0.36 76 1010.0
20260507031101 18 342 1.6 3.2 0.00 0.36 0.36 75 1009.8
20260507030557 19 272 1.6 1.6 0.00 0.36 0.36 74 1009.7
20260507030055 19 297 4.8 4.8 0.00 0.36 0.36 73 1009.9
20260507025552 19 353 6.4 9.7 0.00 0.36 0.36 72 1009.7
20260507025049 19 299 4.8 4.8 0.00 0.36 0.36 71 1009.8
20260507024547 19 274 3.2 3.2 0.00 0.36 0.36 70 1009.6
20260507024043 19 319 4.8 8.0 0.00 0.36 0.36 70 1009.0
20260507023539 19 269 0.0 0.0 0.00 0.36 0.36 70 1009.3
20260507023037 20 343 6.4 8.0 0.00 0.36 0.36 70 1009.6
20260507022534 20 7 8.0 9.7 0.00 0.36 0.36 72 1009.4
20260507022029 20 337 8.0 11.3 0.00 0.36 0.36 79 1009.6
20260507021525 19 321 4.8 4.8 0.00 0.36 0.36 81 1009.4
20260507021022 19 266 3.2 3.2 0.00 0.36 0.36 83 1009.1
20260507020520 19 207 0.0 0.0 0.00 0.36 0.36 84 1009.1
20260507020016 18 207 0.0 0.0 0.00 0.36 0.36 84 1009.5
20260507015514 18 208 0.0 1.6 0.00 0.36 0.36 86 1009.4
20260507015012 18 200 0.0 0.0 0.00 0.36 0.36 88 1009.4
20260507014508 18 200 0.0 0.0 0.00 0.36 0.36 88 1009.6
20260507014003 18 200 0.0 0.0 0.00 0.36 0.36 88 1009.5
20260507013500 18 200 0.0 0.0 0.00 0.36 0.36 88 1009.4
20260507012958 18 200 0.0 0.0 0.00 0.36 0.36 88 1009.5
20260507012455 18 200 0.0 0.0 0.00 0.36 0.36 88 1009.7
20260507011951 18 200 0.0 0.0 0.00 0.36 0.36 88 1009.5
20260507011448 18 200 0.0 0.0 0.00 0.36 0.36 88 1009.5
20260507010944 18 200 0.0 0.0 0.00 0.36 0.36 88 1009.6
20260507010438 18 200 0.0 0.0 0.00 0.36 0.36 87 1009.5
20260507005935 18 200 0.0 0.0 0.00 0.36 0.36 87 1009.3
20260507005433 18 200 0.0 0.0 0.00 0.36 0.36 86 1009.3
20260507004929 18 200 0.0 0.0 0.00 0.36 0.36 86 1009.4
20260507004426 18 200 0.0 0.0 0.00 0.36 0.36 86 1009.3
20260507003924 18 199 0.0 0.0 0.00 0.36 0.36 86 1009.5
20260507003418 18 200 0.0 0.0 0.00 0.36 0.36 86 1009.3
20260507002914 18 235 0.0 0.0 0.00 0.36 0.36 86 1009.1
20260507002410 18 235 0.0 0.0 0.00 0.36 0.36 86 1009.2
20260507001908 18 235 0.0 0.0 0.00 0.36 0.36 86 1009.1
20260507001404 18 235 0.0 0.0 0.00 0.36 0.36 86 1009.0
20260507000902 18 235 0.0 0.0 0.00 0.36 0.36 87 1009.0
20260507000358 18 237 0.0 0.0 0.00 0.36 0.36 87 1009.1
20260506235853 18 238 0.0 0.0 0.00 0.36 0.36 87 1009.1
20260506235350 18 238 0.0 0.0 0.00 0.36 0.36 86 1008.7
20260506234846 18 238 0.0 0.0 0.00 0.36 0.36 86 1008.8
20260506234344 19 224 0.0 1.6 0.00 0.36 0.36 85 1008.9
20260506233841 19 229 0.0 0.0 0.00 0.36 0.36 84 1008.8
20260506233337 20 231 0.0 0.0 0.00 0.36 0.36 83 1008.8
20260506232834 20 230 0.0 0.0 0.00 0.36 0.36 82 1008.8
20260506232330 20 230 0.0 0.0 0.00 0.36 0.36 80 1008.7
20260506231827 20 230 0.0 0.0 0.00 0.36 0.36 80 1008.7
20260506231324 20 246 0.0 0.0 0.00 0.36 0.36 79 1008.9
20260506230822 20 237 0.0 0.0 0.00 0.36 0.36 79 1008.7
20260506230318 20 244 0.0 0.0 0.00 0.36 0.36 78 1008.6
20260506225814 20 241 0.0 0.0 0.00 0.36 0.36 79 1008.3
20260506225312 20 223 0.0 1.6 0.00 0.36 0.36 78 1008.3
20260506224808 20 255 0.0 0.0 0.00 0.36 0.36 78 1008.5
20260506224306 20 229 0.0 0.0 0.00 0.36 0.36 78 1008.6
20260506223802 20 243 0.0 0.0 0.00 0.36 0.36 78 1008.7
20260506223257 20 228 0.0 1.6 0.00 0.36 0.36 78 1008.7
20260506222754 21 247 0.0 0.0 0.00 0.36 0.36 78 1008.5
20260506222250 21 229 0.0 0.0 0.00 0.36 0.36 77 1008.6
20260506221748 21 242 0.0 0.0 0.00 0.36 0.36 77 1008.6
20260506221246 21 237 0.0 0.0 0.00 0.36 0.36 76 1008.8
20260506220743 21 239 0.0 0.0 0.00 0.36 0.36 75 1008.5
20260506220237 21 258 0.0 0.0 0.00 0.36 0.36 76 1008.5
20260506215735 21 263 0.0 0.0 0.00 0.36 0.36 75 1008.6
20260506215230 21 248 0.0 1.6 0.00 0.36 0.36 74 1008.5
20260506214727 21 214 0.0 1.6 0.00 0.36 0.36 73 1008.6
20260506214224 22 189 1.6 1.6 0.00 0.36 0.36 72 1008.5
20260506213722 22 228 0.0 1.6 0.00 0.36 0.36 73 1008.3
20260506213219 21 193 1.6 3.2 0.00 0.36 0.36 73 1008.5
20260506212717 21 240 0.0 0.0 0.00 0.36 0.36 74 1008.5
20260506212212 21 236 0.0 0.0 0.00 0.36 0.36 75 1008.4
20260506211708 21 253 0.0 0.0 0.00 0.36 0.36 76 1008.3
20260506211204 20 224 0.0 1.6 0.00 0.36 0.36 78 1008.1
20260506210701 20 242 1.6 3.2 0.00 0.36 0.36 80 1008.4
20260506210158 20 217 1.6 3.2 0.00 0.36 0.36 80 1008.1
20260506205655 20 214 0.0 0.0 0.00 0.36 0.36 81 1008.3
20260506205150 20 225 0.0 0.0 0.00 0.36 0.36 81 1008.4
20260506204648 20 251 0.0 0.0 0.00 0.36 0.36 81 1008.2
20260506204144 20 139 3.2 3.2 0.00 0.36 0.36 79 1008.2
20260506203643 21 180 3.2 4.8 0.00 0.36 0.36 77 1008.4
20260506203139 21 201 4.8 4.8 0.00 0.36 0.36 75 1008.1
20260506202637 21 238 0.0 1.6 0.00 0.36 0.36 74 1008.0
20260506202133 21 207 3.2 4.8 0.00 0.36 0.36 73 1008.2
20260506201630 21 261 0.0 0.0 0.00 0.36 0.36 74 1008.2
20260506201127 21 237 0.0 1.6 0.00 0.36 0.36 75 1008.0
20260506200623 21 263 3.2 3.2 0.00 0.36 0.36 71 1008.1
20260506200120 21 228 0.0 1.6 0.00 0.36 0.36 73 1008.2
20260506195617 21 282 1.6 1.6 0.00 0.36 0.36 74 1008.4
20260506195113 21 243 0.0 0.0 0.00 0.36 0.36 73 1008.3
20260506194611 21 237 1.6 1.6 0.00 0.36 0.36 73 1008.3
20260506194107 22 237 0.0 0.0 0.00 0.36 0.36 73 1008.3
20260506193605 21 238 0.0 0.0 0.00 0.36 0.36 73 1008.1
20260506193102 21 272 0.0 0.0 0.00 0.36 0.36 74 1008.4
20260506192559 21 11 1.6 1.6 0.00 0.36 0.36 75 1008.3
20260506192054 21 229 1.6 3.2 0.00 0.36 0.36 75 1008.4
20260506191551 21 240 3.2 4.8 0.00 0.36 0.36 73 1008.6
20260506191047 21 242 0.0 0.0 0.00 0.36 0.36 74 1008.5
20260506190545 21 254 0.0 1.6 0.00 0.36 0.36 75 1008.8
20260506190041 21 212 1.6 1.6 0.00 0.36 0.36 76 1008.7
20260506185539 20 251 0.0 1.6 0.00 0.36 0.36 77 1008.8
20260506185035 20 256 3.2 3.2 0.00 0.36 0.36 78 1008.9
20260506184533 20 286 1.6 3.2 0.00 0.36 0.36 78 1008.9
20260506184030 20 224 3.2 3.2 0.00 0.36 0.36 79 1009.0
20260506183525 20 254 0.0 0.0 0.00 0.36 0.36 79 1009.0
20260506183022 19 253 0.0 0.0 0.00 0.36 0.36 79 1009.0
20260506182520 19 262 0.0 0.0 0.00 0.36 0.36 80 1009.0
20260506182017 19 239 0.0 0.0 0.00 0.36 0.36 81 1009.1
20260506181515 19 236 1.6 3.2 0.00 0.36 0.36 80 1009.2
20260506181011 19 230 0.0 1.6 0.00 0.36 0.36 81 1009.3
20260506180508 19 237 0.0 0.0 0.00 0.36 0.36 81 1009.2
20260506180005 19 247 1.6 1.6 0.00 0.36 0.36 82 1009.2
20260506175501 19 245 0.0 1.6 0.00 0.36 0.36 83 1009.2
20260506174957 18 258 1.6 1.6 0.00 0.36 0.36 83 1009.2
20260506174456 18 262 4.8 4.8 0.00 0.36 0.36 84 1009.3
20260506173952 18 197 0.0 1.6 0.00 0.36 0.36 85 1009.2
20260506173450 18 247 0.0 0.0 0.00 0.36 0.36 85 1009.3
20260506172946 18 262 0.0 1.6 0.00 0.36 0.36 85 1009.7
20260506172444 18 252 1.6 1.6 0.00 0.36 0.36 86 1009.2
20260506171940 18 264 4.8 8.0 0.00 0.36 0.36 86 1009.5
20260506171437 17 251 0.0 0.0 0.00 0.36 0.36 87 1009.4
20260506170935 17 225 0.0 0.0 0.00 0.36 0.36 88 1009.5
20260506170431 17 248 0.0 1.6 0.00 0.36 0.36 89 1009.6
20260506165930 17 226 1.6 1.6 0.00 0.36 0.36 89 1009.5
20260506165428 17 235 0.0 1.6 0.00 0.36 0.36 90 1009.6
20260506164924 17 145 1.6 3.2 0.00 0.36 0.36 90 1009.8
20260506164421 17 247 0.0 0.0 0.00 0.36 0.36 90 1009.6
20260506163919 17 233 0.0 1.6 0.00 0.36 0.36 90 1009.6
20260506163413 17 259 0.0 1.6 0.00 0.36 0.36 90 1009.8
20260506162909 17 241 0.0 0.0 0.00 0.36 0.36 90 1009.7
20260506162407 17 285 1.6 1.6 0.00 0.36 0.36 90 1009.7
20260506161904 17 115 1.6 3.2 0.00 0.36 0.36 91 1009.8
20260506161402 16 223 1.6 3.2 0.00 0.36 0.36 91 1009.7
20260506160859 16 225 1.6 3.2 0.00 0.36 0.36 91 1009.8
20260506160356 17 242 1.6 1.6 0.00 0.36 0.36 91 1010.0
20260506155854 17 235 0.0 0.0 0.00 0.36 0.36 90 1010.1
20260506155351 17 219 1.6 3.2 0.00 0.36 0.36 91 1010.2
20260506153508 16 241 1.6 3.2 0.00 0.36 0.36 92 1010.0
20260506153005 16 246 0.0 0.0 0.00 0.36 0.36 93 1010.5
20260506152502 16 222 3.2 3.2 0.13 0.36 0.36 92 1010.5
20260506152000 16 236 0.0 1.6 0.13 0.36 0.36 92 1010.5
20260506151457 16 244 1.6 3.2 0.36 0.33 0.33 92 1010.5
20260506150955 16 256 0.0 1.6 0.66 0.33 0.33 92 1010.6
20260506150450 16 251 1.6 1.6 0.43 0.28 0.28 91 1010.6
20260506145948 16 240 0.0 1.6 0.43 0.23 0.23 91 1010.8
20260506145444 16 247 0.0 0.0 0.30 0.20 0.20 90 1010.8
20260506144942 16 231 0.0 0.0 0.00 0.15 0.15 89 1010.6
20260506144438 16 227 0.0 0.0 0.18 0.15 0.15 89 1010.6
20260506143937 16 251 0.0 1.6 0.18 0.15 0.15 89 1010.5
20260506143433 16 289 0.0 0.0 0.13 0.13 0.13 88 1010.5
20260506142932 17 226 0.0 0.0 0.13 0.13 0.13 88 1010.5
20260506142429 17 235 0.0 0.0 0.18 0.10 0.10 87 1010.4
20260506141927 17 241 0.0 0.0 0.30 0.10 0.10 87 1010.7
20260506141425 17 248 0.0 0.0 0.30 0.08 0.08 87 1010.7
20260506140923 17 233 0.0 1.6 0.18 0.05 0.05 86 1010.8
20260506140419 17 202 1.6 3.2 0.00 0.03 0.03 84 1010.9
20260506135916 17 238 0.0 0.0 0.13 0.03 0.03 84 1010.9
20260506135414 17 246 1.6 3.2 0.13 0.03 0.03 84 1011.3
20260506134909 17 234 0.0 0.0 0.00 0.00 0.00 84 1010.9
20260506134406 17 236 0.0 0.0 0.00 0.00 0.00 83 1011.0
20260506133903 17 237 0.0 0.0 0.00 0.00 0.00 80 1010.8
20260506133359 18 236 1.6 3.2 0.00 0.00 0.00 80 1010.6
20260506132856 18 215 1.6 4.8 0.00 0.00 0.00 79 1010.7
20260506132353 18 231 1.6 1.6 0.00 0.00 0.00 80 1010.8
20260506131852 18 234 0.0 0.0 0.00 0.00 0.00 79 1010.5
20260506131347 18 226 0.0 0.0 0.00 0.00 0.00 78 1010.6
20260506130845 18 221 3.2 3.2 0.00 0.00 0.00 75 1010.3
20260506130341 19 247 0.0 0.0 0.00 0.00 0.00 75 1010.5
20260506125839 18 235 0.0 0.0 0.00 0.00 0.00 76 1010.4
20260506125337 18 239 0.0 0.0 0.00 0.00 0.00 77 1010.5
20260506124835 18 247 0.0 0.0 0.00 0.00 0.00 77 1010.3
20260506124332 18 231 0.0 0.0 0.00 0.00 0.00 78 1010.6
20260506123829 18 218 0.0 1.6 0.00 0.00 0.00 78 1010.7
20260506123328 18 233 0.0 0.0 0.00 0.00 0.00 78 1010.8
20260506122825 18 238 0.0 0.0 0.00 0.00 0.00 80 1010.8
20260506122321 17 247 0.0 1.6 0.00 0.00 0.00 80 1010.9
20260506121820 17 225 0.0 1.6 0.00 0.00 0.00 81 1011.0
20260506121316 17 234 0.0 1.6 0.00 0.00 0.00 80 1010.8
20260506120814 17 238 0.0 0.0 0.00 0.00 0.00 80 1011.0
20260506120311 18 232 3.2 3.2 0.00 0.00 0.00 79 1011.0
20260506115809 18 228 0.0 0.0 0.00 0.00 0.00 79 1010.8
20260506115307 18 244 0.0 0.0 0.00 0.00 0.00 79 1010.6
20260506114804 18 227 1.6 1.6 0.00 0.00 0.00 79 1010.7
20260506114302 18 241 3.2 3.2 0.00 0.00 0.00 79 1010.7
20260506113800 18 209 1.6 3.2 0.00 0.00 0.00 80 1010.6
20260506113258 18 232 0.0 1.6 0.00 0.00 0.00 80 1010.7
20260506112754 18 229 0.0 1.6 0.00 0.00 0.00 78 1010.7
20260506112251 18 201 3.2 3.2 0.00 0.00 0.00 78 1010.9
20260506111748 18 228 4.8 8.0 0.00 0.00 0.00 79 1010.6
20260506111247 17 222 1.6 1.6 0.00 0.00 0.00 82 1010.2
20260506110743 17 230 1.6 1.6 0.00 0.00 0.00 82 1010.3
20260506110241 17 238 4.8 8.0 0.00 0.00 0.00 82 1010.2
20260506105737 17 216 1.6 3.2 0.00 0.00 0.00 82 1010.1
20260506105234 17 230 0.0 0.0 0.00 0.00 0.00 81 1010.2
20260506104732 17 210 1.6 1.6 0.00 0.00 0.00 82 1010.0
20260506104229 17 232 0.0 1.6 0.00 0.00 0.00 83 1010.1
20260506103726 17 239 3.2 8.0 0.00 0.00 0.00 83 1010.1
20260506103224 17 227 3.2 4.8 0.00 0.00 0.00 83 1010.4
20260506102721 17 218 1.6 1.6 0.00 0.00 0.00 83 1010.1
20260506102220 17 218 1.6 1.6 0.00 0.00 0.00 83 1010.2
20260506101716 17 222 1.6 3.2 0.00 0.00 0.00 83 1010.1
20260506101212 17 227 1.6 1.6 0.00 0.00 0.00 83 1010.1
20260506100711 17 212 1.6 1.6 0.00 0.00 0.00 82 1010.0
20260506100208 17 213 0.0 1.6 0.00 0.00 0.00 82 1010.1
20260506095707 17 243 0.0 0.0 0.00 0.00 0.00 82 1009.9
20260506095203 17 227 3.2 3.2 0.00 0.00 0.00 82 1010.1
20260506094700 17 220 0.0 0.0 0.00 0.00 0.00 82 1010.0
20260506094158 17 228 1.6 1.6 0.00 0.00 0.00 82 1010.0
20260506093657 17 217 1.6 1.6 0.00 0.00 0.00 82 1009.9
20260506093153 17 169 3.2 4.8 0.00 0.00 0.00 81 1010.0
20260506092651 17 235 0.0 1.6 0.00 0.00 0.00 81 1010.0
20260506092148 17 235 0.0 1.6 0.00 0.00 0.00 80 1009.8
20260506091646 17 243 4.8 9.7 0.00 0.00 0.00 80 1010.0
20260506091143 17 234 0.0 1.6 0.00 0.00 0.00 81 1010.0
20260506090641 17 227 4.8 4.8 0.00 0.00 0.00 81 1010.2
20260506090137 17 229 0.0 0.0 0.00 0.00 0.00 81 1010.1
20260506085634 17 179 3.2 4.8 0.00 0.00 0.00 80 1010.2
20260506085130 17 216 1.6 1.6 0.00 0.00 0.00 81 1010.4
20260506084627 17 243 3.2 4.8 0.00 0.00 0.00 81 1010.2
20260506084124 17 234 0.0 1.6 0.00 0.00 0.00 81 1010.2
20260506083621 17 189 4.8 11.3 0.00 0.00 0.00 80 1010.1
20260506083119 17 226 3.2 3.2 0.00 0.00 0.00 80 1010.1
20260506082615 17 225 0.0 3.2 0.00 0.00 0.00 80 1010.1
20260506082111 17 205 3.2 3.2 0.00 0.00 0.00 80 1010.2
20260506081609 17 211 4.8 8.0 0.00 0.00 0.00 80 1010.0
20260506081106 17 233 4.8 4.8 0.00 0.00 0.00 80 1010.1
20260506080604 18 231 3.2 4.8 0.00 0.00 0.00 79 1010.0
20260506073044 18 232 0.0 0.0 0.00 0.00 0.00 79 1010.2
20260506072541 18 230 0.0 0.0 0.00 0.00 0.00 78 1010.3
20260506072039 18 184 1.6 4.8 0.00 0.00 0.00 78 1010.2
20260506071537 18 235 1.6 3.2 0.00 0.00 0.00 78 1010.5
20260506071034 18 196 3.2 4.8 0.00 0.00 0.00 78 1010.4
20260506070531 18 235 3.2 4.8 0.00 0.00 0.00 77 1010.4
20260506062508 18 240 3.2 3.2 0.00 0.00 0.00 75 1010.5
20260506062005 18 188 1.6 3.2 0.00 0.00 0.00 75 1010.6
20260506061501 18 240 0.0 0.0 0.00 0.00 0.00 75 1010.6
20260506060959 18 220 0.0 0.0 0.00 0.00 0.00 75 1010.6
20260506060457 18 238 0.0 0.0 0.00 0.00 0.00 75 1010.7